When you browse on this site, cookies collect data to enhance your experience and personalize the content and advertising you see.
Visit our Privacy Policy to learn more. By continuing to use the site, you agree to this use of cookies and data.
  • In Spain
  • List of Countries
  • For 7 days
  • Water Temperature
  • Weather Map
  • Weather Widgets
  • user-avatar
    Login

    Hourly Weather Kinshasa

    Today, 23 October, Wednesday

    Time Temperature Precipitation Wind Pressure Humidity
    00:00 +21°C° 0.1 mm 0 mps 706 mmHg 95%
    01:00 +20°C° 0.1 mm 0 mps 705 mmHg 95%
    02:00 +20°C° 0.1 mm 0 mps 705 mmHg 96%
    03:00 +20°C° 0.1 mm 0 mps 705 mmHg 96%
    04:00 +20°C° 0.1 mm 0 mps 705 mmHg 96%
    05:00 +20°C° 0.3 mm 0 mps 706 mmHg 96%
    06:00 +20°C° 0.3 mm 0 mps 706 mmHg 97%
    07:00 +23°C° 0.3 mm 1 mps 707 mmHg 97%
    08:00 +24°C° 1 mm 1 mps 707 mmHg 95%
    09:00 +25°C° 1 mm 1 mps 707 mmHg 93%
    10:00 +26°C° 1 mm 2 mps 707 mmHg 91%
    11:00 +26°C° 1.2 mm 2 mps 706 mmHg 88%
    12:00 +27°C° 1.2 mm 1 mps 706 mmHg 84%
    13:00 +28°C° 1.2 mm 1 mps 705 mmHg 81%
    14:00 +28°C° 0.6 mm 1 mps 705 mmHg 79%
    15:00 +29°C° 0.6 mm 1 mps 704 mmHg 78%
    16:00 +29°C° 0.6 mm 1 mps 703 mmHg 77%
    17:00 +27°C° 0 mm 1 mps 704 mmHg 80%
    18:00 +26°C° 0 mm 1 mps 704 mmHg 84%
    19:00 +22°C° 0 mm 0 mps 705 mmHg 88%
    20:00 +24°C° 0.1 mm 1 mps 705 mmHg 89%
    21:00 +23°C° 0.1 mm 1 mps 706 mmHg 91%
    22:00 +23°C° 0.1 mm 1 mps 706 mmHg 92%
    23:00 +23°C° 0.1 mm 1 mps 706 mmHg 92%

    Tomorrow, 24 October, Thursday

    Time Temperature Precipitation Wind Pressure Humidity
    00:00 +22°C° 0.1 mm 1 mps 706 mmHg 92%
    01:00 +22°C° 0.1 mm 1 mps 706 mmHg 91%
    02:00 +22°C° 0.1 mm 1 mps 706 mmHg 92%
    03:00 +22°C° 0.1 mm 1 mps 706 mmHg 93%
    04:00 +22°C° 0.1 mm 1 mps 706 mmHg 94%
    05:00 +22°C° 0 mm 1 mps 706 mmHg 94%
    06:00 +22°C° 0 mm 1 mps 707 mmHg 94%
    07:00 +22°C° 0 mm 1 mps 707 mmHg 94%
    08:00 +23°C° 0 mm 1 mps 708 mmHg 93%
    09:00 +23°C° 0 mm 1 mps 708 mmHg 93%
    10:00 +24°C° 0 mm 1 mps 708 mmHg 92%
    11:00 +25°C° 0 mm 1 mps 707 mmHg 88%
    12:00 +26°C° 0 mm 1 mps 707 mmHg 83%
    13:00 +27°C° 0 mm 2 mps 706 mmHg 79%
    14:00 +27°C° 0 mm 1 mps 705 mmHg 79%
    15:00 +27°C° 0 mm 1 mps 705 mmHg 78%
    16:00 +27°C° 0 mm 1 mps 704 mmHg 78%
    17:00 +24°C° 0 mm 0 mps 704 mmHg 83%
    18:00 +22°C° 0 mm 0 mps 705 mmHg 89%
    19:00 +21°C° 0 mm 0 mps 705 mmHg 94%
    20:00 +21°C° 0 mm 0 mps 706 mmHg 94%
    21:00 +22°C° 0 mm 1 mps 706 mmHg 95%
    22:00 +22°C° 0 mm 1 mps 707 mmHg 95%
    23:00 +22°C° 0 mm 1 mps 706 mmHg 95%

    Day after tomorrow, 25 October, Friday

    Time Temperature Precipitation Wind Pressure Humidity
    00:00 +22°C° 0 mm 1 mps 706 mmHg 94%
    01:00 +20°C° 0 mm 0 mps 706 mmHg 94%
    02:00 +21°C° 0 mm 1 mps 706 mmHg 94%
    03:00 +21°C° 0 mm 1 mps 706 mmHg 95%
    04:00 +21°C° 0 mm 1 mps 705 mmHg 95%
    05:00 +22°C° 0 mm 1 mps 706 mmHg 93%
    06:00 +22°C° 0 mm 1 mps 707 mmHg 92%
    07:00 +23°C° 0 mm 1 mps 707 mmHg 90%
    08:00 +24°C° 0 mm 1 mps 708 mmHg 85%
    09:00 +26°C° 0 mm 1 mps 708 mmHg 80%
    10:00 +28°C° 0 mm 2 mps 708 mmHg 75%
    11:00 +28°C° 0.6 mm 2 mps 707 mmHg 76%
    12:00 +29°C° 0.6 mm 2 mps 706 mmHg 77%
    13:00 +29°C° 0.6 mm 2 mps 705 mmHg 78%
    14:00 +29°C° 0.9 mm 1 mps 705 mmHg 80%
    15:00 +29°C° 0.9 mm 1 mps 705 mmHg 82%
    16:00 +28°C° 0.9 mm 1 mps 704 mmHg 85%
    17:00 +27°C° 0.8 mm 1 mps 705 mmHg 87%
    18:00 +24°C° 0.8 mm 0 mps 705 mmHg 88%
    19:00 +23°C° 0.8 mm 0 mps 706 mmHg 90%
    20:00 +22°C° 0.5 mm 0 mps 706 mmHg 91%
    21:00 +22°C° 0.5 mm 0 mps 706 mmHg 92%
    22:00 +22°C° 0.5 mm 0 mps 707 mmHg 93%
    23:00 +23°C° 0.1 mm 1 mps 706 mmHg 94%

    26 October, Saturday

    Time Temperature Precipitation Wind Pressure Humidity
    00:00 +23°C° 0.1 mm 1 mps 706 mmHg 95%
    01:00 +23°C° 0.1 mm 1 mps 706 mmHg 97%
    02:00 +23°C° 1.1 mm 1 mps 706 mmHg 97%
    03:00 +22°C° 1.1 mm 1 mps 706 mmHg 97%
    04:00 +22°C° 1.1 mm 1 mps 706 mmHg 98%
    05:00 +22°C° 1.1 mm 1 mps 707 mmHg 98%
    06:00 +22°C° 1.1 mm 1 mps 707 mmHg 98%
    07:00 +23°C° 1.1 mm 2 mps 708 mmHg 98%
    08:00 +23°C° 0.7 mm 2 mps 708 mmHg 97%
    09:00 +24°C° 0.7 mm 2 mps 708 mmHg 96%
    10:00 +24°C° 0.7 mm 2 mps 708 mmHg 95%
    11:00 +25°C° 0.5 mm 2 mps 707 mmHg 92%
    12:00 +25°C° 0.5 mm 2 mps 706 mmHg 89%
    13:00 +26°C° 0.5 mm 2 mps 705 mmHg 86%
    14:00 +26°C° 0.5 mm 2 mps 705 mmHg 88%
    15:00 +25°C° 0.5 mm 1 mps 705 mmHg 91%
    16:00 +25°C° 0.5 mm 1 mps 705 mmHg 93%
    17:00 +24°C° 0.7 mm 1 mps 705 mmHg 94%
    18:00 +24°C° 0.7 mm 1 mps 706 mmHg 95%
    19:00 +23°C° 0.7 mm 1 mps 706 mmHg 97%
    20:00 +23°C° 1 mm 1 mps 707 mmHg 97%
    21:00 +23°C° 1 mm 1 mps 707 mmHg 98%
    22:00 +23°C° 1 mm 1 mps 707 mmHg 98%
    23:00 +22°C° 2.3 mm 1 mps 707 mmHg 98%

    27 October, Sunday

    Time Temperature Precipitation Wind Pressure Humidity
    00:00 +22°C° 2.3 mm 1 mps 707 mmHg 99%
    01:00 +22°C° 2.3 mm 1 mps 707 mmHg 99%
    02:00 +22°C° 2.8 mm 1 mps 706 mmHg 99%
    03:00 +21°C° 2.8 mm 1 mps 706 mmHg 99%
    04:00 +21°C° 2.8 mm 1 mps 706 mmHg 99%
    05:00 +21°C° 0.7 mm 1 mps 707 mmHg 99%
    06:00 +21°C° 0.7 mm 1 mps 707 mmHg 98%
    07:00 +21°C° 0.7 mm 1 mps 708 mmHg 98%
    08:00 +22°C° 0.1 mm 1 mps 708 mmHg 97%
    09:00 +23°C° 0.1 mm 1 mps 708 mmHg 97%
    10:00 +23°C° 0.1 mm 1 mps 708 mmHg 96%
    11:00 +23°C° 0 mm 1 mps 707 mmHg 94%
    12:00 +24°C° 0 mm 1 mps 707 mmHg 93%
    13:00 +24°C° 0 mm 1 mps 706 mmHg 92%
    14:00 +24°C° 0 mm 1 mps 705 mmHg 92%
    15:00 +24°C° 0 mm 1 mps 705 mmHg 93%
    16:00 +22°C° 0 mm 0 mps 705 mmHg 93%
    17:00 +21°C° 0 mm 0 mps 705 mmHg 94%
    18:00 +21°C° 0 mm 0 mps 706 mmHg 95%
    19:00 +20°C° 0 mm 0 mps 706 mmHg 96%
    20:00 +20°C° 0 mm 0 mps 707 mmHg 96%
    21:00 +20°C° 0 mm 0 mps 707 mmHg 96%
    22:00 +20°C° 0 mm 0 mps 707 mmHg 96%
    23:00 +20°C° 0.1 mm 0 mps 707 mmHg 96%

    28 October, Monday

    Time Temperature Precipitation Wind Pressure Humidity
    00:00 +20°C° 0.1 mm 0 mps 707 mmHg 96%
    01:00 +22°C° 0.1 mm 1 mps 707 mmHg 96%
    02:00 +22°C° 0.3 mm 1 mps 706 mmHg 97%
    03:00 +21°C° 0.3 mm 1 mps 706 mmHg 98%
    04:00 +21°C° 0.3 mm 1 mps 706 mmHg 98%
    05:00 +22°C° 0.1 mm 1 mps 707 mmHg 98%
    06:00 +22°C° 0.1 mm 1 mps 707 mmHg 98%
    07:00 +22°C° 0.1 mm 1 mps 708 mmHg 98%
    08:00 +23°C° 0.1 mm 1 mps 708 mmHg 95%
    09:00 +24°C° 0.1 mm 1 mps 708 mmHg 92%
    10:00 +24°C° 0.1 mm 2 mps 708 mmHg 90%
    11:00 +25°C° 0.2 mm 1 mps 708 mmHg 87%
    12:00 +25°C° 0.2 mm 1 mps 707 mmHg 85%
    13:00 +26°C° 0.2 mm 1 mps 706 mmHg 83%
    14:00 +26°C° 0.7 mm 1 mps 706 mmHg 85%
    15:00 +26°C° 0.7 mm 1 mps 706 mmHg 88%
    16:00 +24°C° 0.7 mm 0 mps 705 mmHg 90%
    17:00 +23°C° 0.4 mm 0 mps 705 mmHg 91%
    18:00 +22°C° 0.4 mm 0 mps 705 mmHg 92%
    19:00 +21°C° 0.4 mm 0 mps 706 mmHg 93%
    20:00 +21°C° 0 mm 0 mps 706 mmHg 94%
    21:00 +20°C° 0 mm 0 mps 706 mmHg 95%
    22:00 +20°C° 0 mm 0 mps 707 mmHg 96%
    23:00 +20°C° 0.5 mm 0 mps 706 mmHg 96%

    29 October, Tuesday

    Time Temperature Precipitation Wind Pressure Humidity
    00:00 +20°C° 0.5 mm 0 mps 706 mmHg 97%
    01:00 +22°C° 0.5 mm 1 mps 706 mmHg 97%
    02:00 +22°C° 0.1 mm 1 mps 706 mmHg 97%
    03:00 +22°C° 0.1 mm 1 mps 706 mmHg 97%
    04:00 +22°C° 0.1 mm 1 mps 706 mmHg 97%
    05:00 +20°C° 0 mm 0 mps 706 mmHg 97%
    06:00 +20°C° 0 mm 0 mps 706 mmHg 97%
    07:00 +20°C° 0 mm 0 mps 707 mmHg 97%
    08:00 +21°C° 0 mm 0 mps 707 mmHg 94%
    09:00 +22°C° 0 mm 0 mps 707 mmHg 91%
    10:00 +25°C° 0 mm 1 mps 707 mmHg 87%
    11:00 +27°C° 0 mm 1 mps 707 mmHg 80%
    12:00 +28°C° 0 mm 1 mps 706 mmHg 72%
    13:00 +30°C° 0 mm 1 mps 705 mmHg 65%
    14:00 +30°C° 0.2 mm 1 mps 705 mmHg 68%
    15:00 +29°C° 0.2 mm 1 mps 704 mmHg 71%
    16:00 +27°C° 0.2 mm 0 mps 704 mmHg 74%
    17:00 +25°C° 0.2 mm 0 mps 704 mmHg 79%
    18:00 +23°C° 0.2 mm 0 mps 705 mmHg 84%
    19:00 +21°C° 0.2 mm 0 mps 705 mmHg 89%
    20:00 +21°C° 0 mm 0 mps 706 mmHg 89%
    21:00 +21°C° 0 mm 0 mps 706 mmHg 90%
    22:00 +20°C° 0 mm 0 mps 707 mmHg 90%
    23:00 +20°C° 0 mm 0 mps 706 mmHg 91%
    Show more